Location: Berg
(48.5667°N, 13.9833°E)
Time: 22:47:43
(UTC+00:00)

Cosmos 1570 Rocket - Pass Details

Date: 09 April 2020
Orbit: 763 x 788 km, 74.1° (Epoch: 26 May)

Event Time Altitude Azimuth Distance (km) Brightness Sun altitude
Rises 20:46:12 0° 333° (NNW) 3,292 8.5 -25.7°
Reaches altitude 10° 20:48:39 10° 329° (NNW) 2,357 7.5 -26.0°
Maximum altitude 20:53:51 53° 254° (WSW) 958 4.5 -26.5°
Enters shadow 20:54:28 50° 228° (SW) 990 4.4 -26.5°
